Overview Statistics Trail Chart Weather Telemetry Raw packets
 

This is the latest recevied weather packets stored in our database for station/object N1YZ. If no packets are shown the sender has not sent any weather packets the latest 10 day(s).

<< 5 6 7 8 9 10 11 >>
Time Temp. Humidity Pressure Rain* Wind** Luminosity Snow
1788616589 27.78° C 85% 1034.4 hPa 0 mm - 45 W/m² -
1788616284 27.78° C 86% 1034.3 hPa 0 mm - 32 W/m² -
1788615978 27.22° C 87% 1034.4 hPa 0 mm - 30 W/m² -
1788615677 27.22° C 87% 1034.5 hPa 0 mm - 37 W/m² -
1788615372 26.67° C 89% 1034.3 hPa 0 mm - 174 W/m² -
1788615067 26.11° C 90% 1034.4 hPa 0 mm - 26 W/m² -
1788614767 26.11° C 90% 1034.3 hPa 0 mm - 25 W/m² -
1788614461 26.11° C 91% 1033.9 hPa 0 mm - 25 W/m² -
1788614157 25.56° C 91% 1034.2 hPa 0 mm - 30 W/m² -
1788613852 25.56° C 92% 1034.5 hPa 0 mm - 28 W/m² -
1788613550 25.56° C 92% 1034.5 hPa 0 mm - 33 W/m² -
1788613246 25.56° C 93% 1034.5 hPa 0 mm - 25 W/m² -
1788612945 25° C 94% 1034.5 hPa 0 mm - 23 W/m² -
1788612641 24.44° C 95% 1034.6 hPa 0 mm - 23 W/m² -
1788612337 24.44° C 96% 1034.3 hPa 0 mm - 20 W/m² -
1788612033 24.44° C 97% 1034.5 hPa 0 mm - 18 W/m² -
1788611729 23.89° C 97% 1034.6 hPa 0 mm - 18 W/m² -
1788611426 23.89° C 97% 1034.6 hPa 0 mm - 16 W/m² -
1788611125 23.89° C 97% 1034.4 hPa 0 mm - 15 W/m² -
1788610825 23.89° C 97% 1034.6 hPa 0 mm - 14 W/m² -
1788610515 23.33° C 97% 1034.3 hPa 0 mm - 14 W/m² -
1788610215 23.33° C 97% 1034.3 hPa 0 mm - 12 W/m² -
1788609909 23.33° C 97% 1034.4 hPa 0 mm - 11 W/m² -
1788609605 23.33° C 98% 1034.4 hPa 0 mm - 10 W/m² -
1788609333 23.33° C 98% 1034.1 hPa 0 mm - 9 W/m² -

* Rain latest hour (hover to see other rain measurements)
** Current wind speed in m/s (hover to see current wind gust speed)